Weather in Strugova Buda

Russia / Bryansk Oblast     53°02′08″N   32°01′11″E
temp.,
°C
wind,
m/s
gust,
m/s
humid.,
%
clouds,
%
prec.,
mm/h
press.,
hPa
HPBL,
m
18 may, tue
tue1800:00+16se39954 2.9 1002183
03:00+14sse3898100 2.9 1002196
06:00+14s489875 0.0 1003296
09:00+17sse4683100 0.0 1004610
12:00+19se3575100 1.1 1003739
15:00+15ese3696100 5.4 1002260
18:00+16ese5992100 3.6 1002384
21:00+15se3793100 6.1 1001176
19 may, wed
wed1900:00+13ese499729 0.4 1001234
03:00+12se37979 0.4 1002165
06:00+11se389717 0.0 1003233
09:00+16sse4684100 0.0 1003711
12:00+18se5670100 0.2 10041264
15:00+19sse4565100 0.8 10041184
18:00+15s2386100 0.9 1004199
21:00+13sw1191100 0.9 100510
20 may, thu
thu2000:00+13ne0094100 0.4 100410
03:00+12w1195100 1.4 100323
06:00+12wsw2294100 0.4 100354
09:00+12wsw4696100 0.8 1002541
12:00+10wsw5792100 0.7 1004608
15:00+10wsw6890100 0.8 1005784
18:00+9w6989100 0.1 1007859
21:00+8w71188100 0.1 1008922
21 may, fri
fri2100:00+8w71393100 0.7 10091174
03:00+8wsw51295100 2.0 1010973
06:00+9w7139497 0.3 1011774
09:00+11w697913 0.3 1014790
12:00+15wnw4657100 0.0 10151179
15:00+17wnw3451100 0.0 10151460
18:00+16w2364100 0.0 10161254
21:00+11w337799 0.0 101824
22 may, sat
sat2200:00+9nnw227774 0.0 101811
03:00+8nnw118471 0.0 101910
06:00+8ne34895 0.0 101972
09:00+14ene4573100 0.0 1018485
12:00+17e3461100 0.0 10181282
15:00+18ese4459100 0.0 10171604
18:00+16ese34732 0.0 1017383
21:00+11ese3690100 0.0 101795